SL-8 DEB, 1335

Orbit data source: Space-Track

SL-8 DEB, 1335 is space debris in LEO originally from a launch on Mon, 15 Mar 1965 UTC launched from the Tyuratam Missile And Space Complex (TTMTR). Debris objects in space refer to the collection of defunct objects orbiting the Earth. Examples of debris include non-operational satellites, rocket bodies, and fragments generated from explosions, collisions, or faulty payload assembly.

Loading next visibility...
Identifier
1335, 1965-020E
Orbit
LEO
Country
Flag of CISCIS
Related business
Manufacturer
Unknown
Mission
Spacecraft
Bus & Motor
Unknown
Mass
Unknown
Launch date (UTC)
1965-03-15 (61 years ago)
Launch vehicle
Unknown
Launch site
Tyuratam Missile And Space Complex (TTMTR)
Object type
Payload
Rocket body
Debris
Shape & HBR
Unknown shape, 0.1 m
Radar Cross Section
Medium (>0.1 m² and <1 m²)

Expand to show TLE details & history
Last TLE update: 13 hours ago

TLE from 13 hours ago
0 SL-8 DEB
1 01335U 65020E   26127.24528110  .00001766  00000-0  53444-3 0  9999
2 01335  56.0718 105.2123 0528413  75.7515 290.1533 13.87494614  4305
Epoch: 2026-05-07T05:53Z
TLE epoch observation values (Epoch: 2026-05-07T05:53:12.287Z)
Latitude
-0.00003°
Longitude
151.8169°
Altitude
823.842 km
Speed
7.5 km/s
True Right ascension
07h 00m 50s
True Declination
0° 00' 00"
Sunlit
Object was in daylight at epoch
Visualization orbit readout
Latitude
Unknown
Longitude
Unknown
Altitude
Unknown
Speed
Unknown
Apparent Right ascension
Unknown
Apparent Declination
Unknown
Sunlit
N/A
Visualization observer readout
Local Sidereal Time
02:26:19
Azimuth
Unknown
Elevation
Unknown
Doppler factor
Unknown
Orbital elements
Apogee altitude
1,323.784 km
Perigee altitude
550.677 km
Semi-major axis
7,315.368 km
Eccentricity
0.05284
Inclination
56.0718°
RAAN
105.2123°
Arg. of periapsis
75.7515°
True anomaly
284.3466°
Mean anomaly
290.1533°
Eccentric anomaly
287.26209°
Mean motion
3.46888 °/min
Orbital period
103.78 mins
BSTAR
0.00053444
Loading maneuver chart data...
Computing Atmospheric mass density...
Loading historical data...
Loading historical data...
Loading historical data...
Loading historical data...
Loading historical data...
Loading historical data...
Loading historical data...

Documentation

Showing up to 5 results
|